Regional Weather Roundup
Issued by NWS Upton, NY

Current Version | Previous Version | Graphics & Text | Print | Product List | Glossary Off
Versions: 1 2 3 4 5 6 7 8 9 10 11 12 13 14 15 16 17 18 19 20 21 22 23 24 25 26 27 28 29 30 31 32 33 34 35 36 37 38 39 40 41 42 43 44 45 46 47 48 49 50

000
ASUS41 KOKX 302118
RWROKX

REGIONAL WEATHER ROUNDUP
NATIONAL WEATHER SERVICE NEW YORK NY
500 PM EDT TUE JUN 30 2015

NOTE: "FAIR" INDICATES FEW OR NO CLOUDS BELOW 12,000 FEET WITH NO
SIGNIFICANT WEATHER AND/OR OBSTRUCTIONS TO VISIBILITY.

NYZ071-072-176-178-NJZ106-104-302200-
NEW YORK CITY METRO AREA


CITY           SKY/WX    TMP DP  RH WIND       PRES   REMARKS
CENTRAL PARK   PTSUNNY   76  61  59 VRB7      29.92F
LAGUARDIA APRT PTSUNNY   77  60  55 S20G26    29.89F
KENNEDY INTL   PTSUNNY   76  65  68 SE18G24   29.91F
NEWARK/LIBERTY CLOUDY    77  65  66 SE12G23   29.88S
BRNX BOT. GARD   N/A     75  59  57 E5        29.91F
TETERBORO      PTSUNNY   79  59  50 S16G22    29.87F
$$

NYZ177-179-078>081-302200-
LONG ISLAND NEW YORK

CITY           SKY/WX    TMP DP  RH WIND       PRES   REMARKS
FARMINGDALE    SUNNY     78  63  59 S18       29.92F
ISLIP          PTSUNNY   77  62  59 S16       29.92F
SHIRLEY        MOSUNNY   77  60  55 S15       29.95F
WESTHAMPTON    MOSUNNY   75  60  59 S12       29.96F
MONTAUK POINT    N/A     76  66  71 VRB6      29.97F
$$

NYZ052-065-067-302200-
HUDSON VALLEY

CITY           SKY/WX    TMP DP  RH WIND       PRES   REMARKS
WHITE PLAINS   PTSUNNY   76  59  55 SE10G18   29.91F
NEWBURGH       PTSUNNY   73  64  73 SE7       29.89F
MONTGOMERY     LGT RAIN  69  66  90 N8        29.88F
POUGHKEEPSIE   CLOUDY    73  68  84 N5        29.88F
ALBANY         CLOUDY    68  64  87 CALM      29.91F
$$

NJZ001-105-106-008-010-013-015-019>022-104-302200-
NEW JERSEY

CITY           SKY/WX    TMP DP  RH WIND       PRES   REMARKS
NEWARK/LIBERTY CLOUDY    77  65  66 SE12G23   29.88S
TETERBORO      PTSUNNY   79  59  50 S16G22    29.87F
CALDWELL       CLOUDY    76  63  64 SE14      29.88S
MORRISTOWN     CLOUDY    82  63  51 S8        29.87F
SOMERVILLE     LGT RAIN  82  64  54 S6        29.84S
SUSSEX         LGT RAIN  70  66  87 CALM      29.88F
ANDOVER          N/A     71  67  87 VRB3      29.88F
TRENTON        LGT RAIN  79  62  56 S13       29.84F
MILLVILLE      PTSUNNY   80  70  71 S13G24    29.85F
ATLANTIC CITY  PTSUNNY   79  70  74 S14G22    29.88F
WRIGHTSTOWN    LGT RAIN  79  63  57 S10       29.84S
TOMS RIVER     MOSUNNY   81  66  61 SE18G24   29.89F
BELMAR         PTSUNNY   77  64  65 S15G23    29.90F
$$

PAZ047>061-062-071-302200-
EASTERN PENNSYLVANIA

CITY           SKY/WX    TMP DP  RH WIND       PRES   REMARKS
PHILADELPHIA   TSTM      78  65  63 NW7G17    29.87R
ALLENTOWN      PTSUNNY   74  66  76 E7        29.83F
SCRANTON       LGT RAIN  71  67  87 NE3       29.85F FOG
$$

CTZ002-004>006-009-010-012-RIZ004-006-007-MAZ004-011-015-302200-
SOUTHERN NEW ENGLAND
 IN CT

CITY           SKY/WX    TMP DP  RH WIND       PRES   REMARKS
BRADLEY INTL   PTSUNNY   80  57  45 S15       29.91F
HARTFORD       PTSUNNY   79  57  46 S13G23    29.92F
DANBURY        PTSUNNY   76  56  49 SE8       29.93F
WTRBRY/OXFORD  PTSUNNY   75  57  53 S12       29.96F
BRIDGEPORT     MOSUNNY   78  59  51 S7        29.92F
MERIDEN        MOSUNNY   79  57  46 S14G21    29.93F
NEW HAVEN      PTSUNNY   76  61  59 S9        29.94S
CHESTER        MOCLDY    75  57  53 S9        29.97S
GROTON         SUNNY     74  62  66 SE10      29.95F
WILLIMANTIC    SUNNY     80  58  46 S9G17     29.95F

 IN RI

CITY           SKY/WX    TMP DP  RH WIND       PRES   REMARKS
PROVIDENCE     PTSUNNY   80  56  43 SW12      29.96F
BLOCK ISLAND   SUNNY     73  64  73 S9        29.98F
WESTERLY       SUNNY     74  62  66 S8        29.97F

 IN MA

CITY           SKY/WX    TMP DP  RH WIND       PRES   REMARKS
BOSTON         MOSUNNY   68  61  78 E10       29.96F
WORCESTER      MOSUNNY   77  58  51 S7        29.97S
WESTFIELD      CLOUDY    77  61  57 S5        29.92F
PROVINCETOWN   MOSUNNY   81  19  10 SW13      29.97S
NANTUCKET      SUNNY     72  61  68 S6        29.99F
$$

ANZ330-335-338-340-345-350-353-355-302200-
COASTAL MARINE OBSERVATIONS


STATION/POSITION TIME  SKY/WX   TEMP    WIND        PRES    VSBY  WAVE
                                AIR SEA DIR/SP/G                  HT/PER
                 (UTC)          (F)     (DEG/KT/KT) (MB)    (MI)  (FT/S)
NY HARB ENTRANCE 2050            70 69  150/ 14/ 16 1012.1          3/ 8
4S FIRE IS       2103               68                N/A           3/ 8
20S FIRE ISLAND  2050            70 68  150/ 12/ 14 1013.1          3/ 8
GREAT SOUTH BAY  2015            71 74  180/ 12/ 16   N/A
23SW MTP         2050            69 67  160/  6/  8 1014.2          3/ 8
HUDSON CANYON    NOT AVBL
KINGS POINT      2000            77 68  190/ 14/ 18 1012.1
CENTRAL LI SOUND NOT AVBL
EASTERN LI SOUND 2000            69     180/  8/ 10   N/A
ROBBINS REEF     2000            73     150/ 24/ 29 1010.9
$$


>>>>>>>>>>>>>>>>>>>>>>>>>>>> KEY <<<<<<<<<<<<<<<<<<<<<<<<<<<
>                                                          <
>     SKY/WX - SKY CONDITION/PRESENT WEATHER               <
>     TMP    - TEMPERATURE IN FAHRENHEIT                   <
>     DP     - DEWPOINT IN FAHRENHEIT                      <
>     RH     - RELATIVE HUMIDITY IN PERCENT                <
>     WIND   - DIRECTION AND SPEED IN MPH                  <
>     PRES   - MEAN SEA LEVEL PRESSURE IN INCHES OF HG     <
>     WCI    - WIND CHILL INDEX                            <
>     VSB    - VISIBILITY IN MILES                         <
>     HX     - HEAT INDEX                                  <
>     TC     - TEMPERATURE IN CELSIUS                      <
>     VRB    - VARIABLE WIND DIRECTION                     <
>                                                          <
>>>>>>>>>>>>>>>>>>>>>>>>>>>> KEY <<<<<<<<<<<<<<<<<<<<<<<<<<<





USA.gov is the U.S. government's official web portal to all federal, state and local government web resources and services.